Time,TemperatureF,DewpointF,PressureIn,WindDirection,WindDirectionDegrees,WindSpeedMPH,WindSpeedGustMPH,Humidity,HourlyPrecipIn,Conditions,Clouds,dailyrainin,SoftwareType,DateUTC
2013-09-29 00:12:00,38.0,29.0,30.07,NNE,27,3.0,-999.0,69,-99.99,,,-99.99,,2013-09-29 06:12:00,
2013-09-29 00:22:00,37.0,27.0,30.07,NNE,27,3.0,-999.0,68,-99.99,,,-99.99,,2013-09-29 06:22:00,
2013-09-29 00:42:00,38.0,27.0,30.07,NNE,27,2.0,-999.0,65,-99.99,,,-99.99,,2013-09-29 06:42:00,
2013-09-29 00:52:00,38.0,29.0,30.07,NNE,27,3.0,-999.0,69,-99.99,,,-99.99,,2013-09-29 06:52:00,
2013-09-29 01:11:00,38.0,29.0,30.06,NNE,27,2.0,-999.0,69,-99.99,,,-99.99,,2013-09-29 07:11:00,
2013-09-29 01:22:00,38.0,28.0,30.06,NNE,27,2.0,-999.0,67,-99.99,,,-99.99,,2013-09-29 07:22:00,
2013-09-29 01:42:00,38.0,28.0,30.06,NNE,27,1.0,-999.0,66,-99.99,,,-99.99,,2013-09-29 07:42:00,
2013-09-29 01:52:00,38.0,27.0,30.06,NNE,27,2.0,-999.0,65,-99.99,,,-99.99,,2013-09-29 07:52:00,
2013-09-29 02:12:00,38.0,27.0,30.04,NNE,27,2.0,-999.0,64,-99.99,,,-99.99,,2013-09-29 08:12:00,
2013-09-29 02:22:00,36.0,26.0,30.05,NNE,27,2.0,-999.0,68,-99.99,,,-99.99,,2013-09-29 08:22:00,
2013-09-29 02:42:00,36.0,26.0,30.05,NNE,27,3.0,-999.0,68,-99.99,,,-99.99,,2013-09-29 08:42:00,
2013-09-29 02:52:00,36.0,28.0,30.05,NNE,27,2.0,-999.0,71,-99.99,,,-99.99,,2013-09-29 08:52:00,
2013-09-29 03:11:00,37.0,28.0,30.05,NNE,27,3.0,-999.0,70,-99.99,,,-99.99,,2013-09-29 09:11:00,
2013-09-29 03:22:00,37.0,28.0,30.05,NNE,27,2.0,-999.0,71,-99.99,,,-99.99,,2013-09-29 09:22:00,
2013-09-29 03:43:00,37.0,28.0,30.03,NNE,27,2.0,-999.0,69,-99.99,,,-99.99,,2013-09-29 09:43:00,
2013-09-29 03:53:00,37.0,29.0,30.05,NNE,27,2.0,-999.0,72,-99.99,,,-99.99,,2013-09-29 09:53:00,
2013-09-29 04:12:00,37.0,28.0,30.03,NNE,27,2.0,-999.0,70,-99.99,,,-99.99,,2013-09-29 10:12:00,
2013-09-29 04:23:00,37.0,28.0,30.03,NNE,27,1.0,-999.0,70,-99.99,,,-99.99,,2013-09-29 10:23:00,
2013-09-29 04:43:00,36.0,27.0,30.02,NNE,27,1.0,-999.0,70,-99.99,,,-99.99,,2013-09-29 10:43:00,
2013-09-29 04:53:00,34.0,27.0,30.03,NNE,27,1.0,-999.0,75,-99.99,,,-99.99,,2013-09-29 10:53:00,
2013-09-29 05:12:00,33.0,26.0,30.03,NNE,27,2.0,-999.0,76,-99.99,,,-99.99,,2013-09-29 11:12:00,
2013-09-29 05:22:00,33.0,27.0,30.03,NNE,27,2.0,-999.0,78,-99.99,,,-99.99,,2013-09-29 11:22:00,
2013-09-29 05:52:00,32.0,27.0,30.04,NNE,27,0.0,-999.0,80,-99.99,,,-99.99,,2013-09-29 11:52:00,
2013-09-29 06:12:00,32.0,27.0,30.07,NNE,27,0.0,-999.0,80,-99.99,,,-99.99,,2013-09-29 12:12:00,
2013-09-29 06:21:00,31.0,26.0,30.06,NNE,27,0.0,-999.0,80,-99.99,,,-99.99,,2013-09-29 12:21:00,
2013-09-29 06:52:00,31.0,26.0,30.07,NNE,27,0.0,-999.0,82,-99.99,,,-99.99,,2013-09-29 12:52:00,
2013-09-29 07:11:00,31.0,26.0,30.11,NNE,27,3.0,-999.0,81,-99.99,,,-99.99,,2013-09-29 13:11:00,
2013-09-29 07:22:00,31.0,26.0,30.11,NNE,27,2.0,-999.0,82,-99.99,,,-99.99,,2013-09-29 13:22:00,
2013-09-29 07:53:00,31.0,26.0,30.12,NNE,27,3.0,-999.0,83,-99.99,,,-99.99,,2013-09-29 13:53:00,
2013-09-29 08:11:00,34.0,29.0,30.15,NNE,27,1.0,-999.0,82,-99.99,,,-99.99,,2013-09-29 14:11:00,
2013-09-29 08:21:00,36.0,29.0,30.14,NNE,27,2.0,-999.0,76,-99.99,,,-99.99,,2013-09-29 14:21:00,
2013-09-29 08:42:00,39.0,30.0,30.13,NNE,27,2.0,-999.0,70,-99.99,,,-99.99,,2013-09-29 14:42:00,
2013-09-29 08:52:00,42.0,31.0,30.12,NNE,27,3.0,-999.0,64,-99.99,,,-99.99,,2013-09-29 14:52:00,
2013-09-29 09:11:00,45.0,32.0,30.11,NNE,27,2.0,-999.0,59,-99.99,,,-99.99,,2013-09-29 15:11:00,
2013-09-29 09:22:00,48.0,31.0,30.09,NNE,32,2.0,-999.0,52,-99.99,,,-99.99,,2013-09-29 15:22:00,
2013-09-29 09:54:00,51.0,30.0,30.08,NE,45,1.0,-999.0,45,-99.99,,,-99.99,,2013-09-29 15:54:00,
2013-09-29 10:44:00,57.0,27.0,30.08,NE,45,1.0,-999.0,31,-99.99,,,-99.99,,2013-09-29 16:44:00,
2013-09-29 10:54:00,57.0,27.0,30.08,NE,45,1.0,-999.0,31,-99.99,,,-99.99,,2013-09-29 16:54:00,
2013-09-29 11:12:00,60.0,26.0,30.05,SE,134,2.0,-999.0,27,-99.99,,,-99.99,,2013-09-29 17:12:00,
2013-09-29 11:23:00,61.0,27.0,30.03,South,169,2.0,-999.0,27,-99.99,,,-99.99,,2013-09-29 17:23:00,
2013-09-29 11:43:00,62.0,25.0,30.03,East,100,2.0,-999.0,24,-99.99,,,-99.99,,2013-09-29 17:43:00,
2013-09-29 11:52:00,62.0,25.0,30.03,East,100,2.0,-999.0,24,-99.99,,,-99.99,,2013-09-29 17:52:00,
2013-09-29 12:13:00,63.0,26.0,30.03,ESE,123,2.0,-999.0,24,-99.99,,,-99.99,,2013-09-29 18:13:00,
2013-09-29 12:21:00,64.0,26.0,30.01,SSE,148,2.0,-999.0,24,-99.99,,,-99.99,,2013-09-29 18:21:00,
2013-09-29 12:42:00,65.0,26.0,30.01,South,181,1.0,-999.0,23,-99.99,,,-99.99,,2013-09-29 18:42:00,
2013-09-29 12:52:00,64.0,26.0,30.01,SW,229,1.0,-999.0,24,-99.99,,,-99.99,,2013-09-29 18:52:00,
2013-09-29 13:11:00,65.0,26.0,29.99,SSE,162,2.0,-999.0,23,-99.99,,,-99.99,,2013-09-29 19:11:00,
2013-09-29 13:21:00,65.0,25.0,29.98,SW,222,2.0,-999.0,22,-99.99,,,-99.99,,2013-09-29 19:21:00,
2013-09-29 13:42:00,65.0,24.0,29.97,WSW,255,2.0,-999.0,21,-99.99,,,-99.99,,2013-09-29 19:42:00,
2013-09-29 13:52:00,66.0,24.0,29.95,SSW,193,2.0,-999.0,20,-99.99,,,-99.99,,2013-09-29 19:52:00,
2013-09-29 14:12:00,67.0,25.0,29.95,WSW,253,2.0,-999.0,20,-99.99,,,-99.99,,2013-09-29 20:12:00,
2013-09-29 14:21:00,69.0,24.0,29.93,SSW,212,3.0,-999.0,18,-99.99,,,-99.99,,2013-09-29 20:21:00,
2013-09-29 14:42:00,69.0,24.0,29.91,SSW,206,4.0,-999.0,18,-99.99,,,-99.99,,2013-09-29 20:42:00,
2013-09-29 14:52:00,69.0,21.0,29.91,WSW,245,5.0,-999.0,16,-99.99,,,-99.99,,2013-09-29 20:52:00,
2013-09-29 15:11:00,69.0,22.0,29.90,WSW,251,6.0,-999.0,17,-99.99,,,-99.99,,2013-09-29 21:11:00,
2013-09-29 15:21:00,70.0,22.0,29.89,West,262,2.0,-999.0,16,-99.99,,,-99.99,,2013-09-29 21:21:00,
2013-09-29 15:44:00,70.0,20.0,29.88,West,270,4.0,-999.0,15,-99.99,,,-99.99,,2013-09-29 21:44:00,
2013-09-29 15:54:00,71.0,21.0,29.88,West,262,6.0,-999.0,15,-99.99,,,-99.99,,2013-09-29 21:54:00,
2013-09-29 16:14:00,71.0,23.0,29.88,WSW,255,6.0,-999.0,16,-99.99,,,-99.99,,2013-09-29 22:14:00,
2013-09-29 16:23:00,72.0,20.0,29.86,WSW,245,6.0,-999.0,14,-99.99,,,-99.99,,2013-09-29 22:23:00,
2013-09-29 16:53:00,72.0,22.0,29.86,WSW,250,4.0,-999.0,15,-99.99,,,-99.99,,2013-09-29 22:53:00,
2013-09-29 17:12:00,71.0,19.0,29.89,WSW,245,5.0,-999.0,14,-99.99,,,-99.99,,2013-09-29 23:12:00,
2013-09-29 17:23:00,72.0,18.0,29.88,West,268,6.0,-999.0,13,-99.99,,,-99.99,,2013-09-29 23:23:00,
2013-09-29 17:43:00,72.0,20.0,29.89,WSW,252,6.0,-999.0,14,-99.99,,,-99.99,,2013-09-29 23:43:00,
2013-09-29 17:52:00,71.0,19.0,29.88,West,265,7.0,-999.0,14,-99.99,,,-99.99,,2013-09-29 23:52:00,
2013-09-29 18:11:00,71.0,18.0,29.88,WSW,248,6.0,-999.0,13,-99.99,,,-99.99,,2013-09-30 00:11:00,
2013-09-29 18:22:00,69.0,19.0,29.90,WSW,252,4.0,-999.0,15,-99.99,,,-99.99,,2013-09-30 00:22:00,
2013-09-29 18:42:00,68.0,20.0,29.91,WNW,283,3.0,-999.0,16,-99.99,,,-99.99,,2013-09-30 00:42:00,
2013-09-29 18:52:00,67.0,21.0,29.91,WNW,296,1.0,-999.0,17,-99.99,,,-99.99,,2013-09-30 00:52:00,
2013-09-29 19:11:00,66.0,23.0,29.92,WNW,296,0.0,-999.0,19,-99.99,,,-99.99,,2013-09-30 01:11:00,
2013-09-29 19:22:00,65.0,20.0,29.92,WNW,295,2.0,-999.0,18,-99.99,,,-99.99,,2013-09-30 01:22:00,
2013-09-29 19:42:00,64.0,21.0,29.92,WNW,295,1.0,-999.0,19,-99.99,,,-99.99,,2013-09-30 01:42:00,
2013-09-29 19:52:00,63.0,20.0,29.93,WNW,295,0.0,-999.0,19,-99.99,,,-99.99,,2013-09-30 01:52:00,
2013-09-29 20:12:00,61.0,23.0,29.88,WNW,295,0.0,-999.0,23,-99.99,,,-99.99,,2013-09-30 02:12:00,
2013-09-29 20:22:00,59.0,22.0,29.90,WNW,295,0.0,-999.0,24,-99.99,,,-99.99,,2013-09-30 02:22:00,
2013-09-29 20:42:00,55.0,25.0,29.93,NNW,344,3.0,-999.0,31,-99.99,,,-99.99,,2013-09-30 02:42:00,
2013-09-29 21:55:00,48.0,29.0,29.92,NNW,347,0.0,-999.0,47,-99.99,,,-99.99,,2013-09-30 03:55:00,
2013-09-29 22:14:00,50.0,28.0,29.86,North,6,3.0,-999.0,42,-99.99,,,-99.99,,2013-09-30 04:14:00,
2013-09-29 22:24:00,50.0,28.0,29.86,North,6,2.0,-999.0,43,-99.99,,,-99.99,,2013-09-30 04:24:00,
2013-09-29 22:44:00,49.0,29.0,29.86,North,6,2.0,-999.0,45,-99.99,,,-99.99,,2013-09-30 04:44:00,
2013-09-29 22:53:00,46.0,27.0,29.88,North,6,2.0,-999.0,48,-99.99,,,-99.99,,2013-09-30 04:53:00,
2013-09-29 23:12:00,45.0,27.0,29.86,North,6,2.0,-999.0,50,-99.99,,,-99.99,,2013-09-30 05:12:00,
2013-09-29 23:23:00,44.0,28.0,29.88,North,6,2.0,-999.0,53,-99.99,,,-99.99,,2013-09-30 05:23:00,
2013-09-29 23:43:00,43.0,28.0,29.88,North,6,1.0,-999.0,56,-99.99,,,-99.99,,2013-09-30 05:43:00,
2013-09-29 23:52:00,43.0,28.0,29.88,North,6,3.0,-999.0,56,-99.99,,,-99.99,,2013-09-30 05:52:00,